Tracking 28052 objects as of 21-Sep-2023
HD Live streaming from Space Station
objects crossing your sky now

STARLINK-4398

Track STARLINK-4398 now!
10-day predictions
STARLINK-4398 is classified as:


NORAD ID: 53466
Int'l Code: 2022-099B
Perigee: 569.8 km
Apogee: 570.6 km
Inclination: 97.7 °
Period: 95.9 minutes
Semi major axis: 6941 km
RCS: Unknown
Launch date: August 12, 2022
Source: United States (US)
Launch site: AIR FORCE WESTERN TEST RANGE (AFWTR)
Your satellite tracking list
Your tracking list is empty




NASA's NSSDC Master Catalog

Two Line Element Set (TLE):
1 53466U 22099B   23263.91902299 -.00000241  00000-0 -14196-4 0  9997
2 53466  97.6536  23.6208 0000569 248.4843 111.6320 15.01253068 60838
Source of the keplerian elements: AFSPC